Flag for U.S.A. Weather past 2 weeks in Butte, Montana, U.S.A.

Now
20 °F

Overcast.


Feels Like: 20 °F
Forecast: 11 / 27 °F
Wind: No wind

Location: Mooney Airport

Current Time: Jan 31, 2015 at 10:47:07 PM

Latest Report: Jan 31, 2015 at 9:53 PM


Visibility: 10 mi

Pressure: 30.29 "Hg

Humidity: 78%

Dew point: 14 °F

Location of ButteLocation

Historic Weather in Butte — Graph

°F

Butte temperature yesterday

Maximum temperature yesterday: 38 °F (at 1:53 PM)
Minimum temperature yesterday: 14 °F (at 7:53 AM)
Average temperature yesterday: 24 °F

Past Weeks' High & Low Weather Summary

 TemperatureHumidityPressure
High54 °F (Jan 25, 1:53 PM)93% (Jan 25, 7:53 AM)30.58 "Hg (Jan 25, 7:53 AM)
Low5 °F (Jan 21, 6:53 AM)35% (Jan 25, 1:53 PM)29.92 "Hg (Jan 18, 7:53 AM)
Average29 °F72%30.30 "Hg
* Reported Jan 16 9:53 PM — Jan 31 9:53 PM, Butte, Weather by CustomWeather, © 2014

Note: Actual official high and low records may vary slightly from our data, if they occured in-between our weather recording intervals... More about our weather records

Advertising

Butte weather history for previous 24 hours

 ConditionsComfort  
Time TempWeatherWind HumidityBarometerVisibility
9:53 PM
Jan 31
20 °FOvercast.No wind78%30.29 "Hg10 mi
8:53 PM21 °FPassing clouds.5 mph81%30.29 "Hg10 mi
7:53 PM22 °FClear.3 mph78%30.29 "Hg10 mi
6:53 PM24 °FClear.5 mph77%30.28 "Hg10 mi
5:53 PM27 °FClear.8 mph72%30.25 "Hg10 mi
4:53 PM31 °FSunny.9 mph64%30.22 "Hg10 mi
3:53 PM35 °FSunny.8 mph50%30.18 "Hg10 mi
2:53 PM35 °FSunny.13 mph52%30.16 "Hg10 mi
1:53 PM36 °FSunny.12 mph50%30.13 "Hg10 mi
12:53 PM37 °FPartly sunny.14 mph44%30.13 "Hg10 mi
11:53 AM34 °FSunny.No wind52%30.16 "Hg10 mi
10:53 AM28 °FSunny.No wind66%30.19 "Hg10 mi
9:53 AM25 °FSunny.No wind72%30.19 "Hg10 mi
8:53 AM20 °FOvercast.No wind82%30.21 "Hg10 mi
7:53 AM18 °FPartly sunny.5 mph84%30.21 "Hg10 mi
6:53 AM16 °FOvercast.9 mph84%30.21 "Hg10 mi
5:53 AM15 °FClear.No wind83%30.18 "Hg10 mi
4:53 AM15 °FClear.No wind87%30.16 "Hg10 mi
3:53 AM17 °FClear.6 mph83%30.15 "Hg10 mi
2:53 AM16 °FClear.5 mph87%30.19 "Hg10 mi
1:53 AM18 °FClear.No wind84%30.17 "Hg10 mi
12:53 AM18 °FClear.No wind84%30.22 "Hg10 mi
11:53 PM
Jan 30
18 °FClear.10 mph84%30.24 "Hg10 mi
10:53 PM19 °FClear.No wind85%30.24 "Hg10 mi
Weather by CustomWeather, © 2014

See weather overviewHow to use our weather pages